Regional Weather Roundup
Issued by NWS

Home | Current Version | Previous Version | Graphics & Text | Print | Product List | Glossary On
Versions: 1 2 3 4 5 6 7 8 9 10 11 12 13 14 15 16 17 18 19 20 21 22 23 24 25 26 27 28 29 30 31 32 33 34 35 36 37 38 39 40 41 42 43 44 45 46 47 48 49 50
000
ASUS43 KLOT 282103
RWRIL

ILLINOIS REGIONAL WEATHER ROUNDUP
NATIONAL WEATHER SERVICE CHICAGO/ROMEOVILLE IL
400 PM CDT THU JUL 28 2016

NOTE: "FAIR" INDICATES FEW OR NO CLOUDS BELOW 12,000 FEET WITH NO
SIGNIFICANT WEATHER AND/OR OBSTRUCTIONS TO VISIBILITY.

* THESE STATIONS ARE NOT UNDER NWS QUALITY CONTROL. THEY ALSO MAY NOT
  REPORT WEATHER SUCH AS PRECIPITATION OR FOG.

ILZ001-002-007-009-015-016-024-282200-
NORTHWEST ILLINOIS

CITY           SKY/WX    TMP DP  RH WIND       PRES   REMARKS
MOLINE         SUNNY     83  66  56 W12       29.88R HX  85
STERLING*      SUNNY     86  72  62 W13       29.86S HX  92
SAVANNA*       SUNNY     84  69  60 W6        29.86S HX  87
$$

ILZ003-004-008-010-011-017-018-282200-
NORTH CENTRAL ILLINOIS

CITY           SKY/WX    TMP DP  RH WIND       PRES   REMARKS
ROCKFORD       PTSUNNY   77  66  68 E8        29.91R
FREEPORT*      MOSUNNY   78  68  71 E9        29.89R HX  81
ROCHELLE*      MOSUNNY   80  70  72 E8        29.90R HX  83
DE KALB*       CLOUDY    74  70  87 E10       29.93R
$$

ILZ005-006-012>014-019>023-282200-
NORTHEAST ILLINOIS

CITY           SKY/WX    TMP DP  RH WIND       PRES   REMARKS
CHICAGO-OHARE  LGT RAIN  75  71  87 N10       29.91R
CHICAGO-MIDWAY LGT RAIN  75  69  81 CALM      29.91R
AURORA         TSTM      71  68  90 NE12      29.92R FOG
LANSING*       PTSUNNY   78  64  62 NW6       29.89R HX  80
WAUKEGAN       CLOUDY    74  70  87 N5        29.92R
DUPAGE AIRPORT TSTM      67  64  90 W13G25    29.95R VSB 1
KANKAKEE*      SUNNY     85  69  58 SW5       29.89R HX  89
WHEELING       CLOUDY    75  72  90 N6        29.94R
MORRIS*        CLOUDY    77  69  76 CALM      29.88R
NORTHERLY ISL    N/A     74  70  87 CALM        N/A
$$

LMZ740>746-282200-
SOUTHERN LAKE MICHIGAN

STATION/POSITION SKY/WX   TEMP    WIND        PRES    VSBY  WAVE
                          AIR SEA DIR/SP/G                  HT/PER
                          (F)     (DEG/KT/KT) (MB)    (MI)  (FT/S)
SOUTHERN BUOY              75 78   30/  6/  6 1011.3          2/ 5
WILMETTE HARBOR            75 72   60/  4/  4   N/A           1/ 4
HARRISON CRIB              77     340/  2/  3   N/A
BURNHAM HARBOR             75      CALM  /  7   N/A
CALUMET HARBOR             72     150/  5/  8 1011.7R
BURNS HARBOR               78      20/ 10/ 12 1011.9S
MICHIGAN CITY              77     360/ 12/ 13   N/A
MICHIGAN CITY 6N           78 78   10/  8/ 12   N/A           1
ST. JOSEPH                 77 78  350/  8/ 10 1011.0F         1
$$

ILZ025>027-034>036-040-047-049-050-058-095>099-282200-
WEST-CENTRAL ILLINOIS

CITY           SKY/WX    TMP DP  RH WIND       PRES   REMARKS
QUINCY         PTSUNNY   79  70  74 NW10      29.91S HX  82
GALESBURG*     PTSUNNY   82  69  64 W14       29.89S HX  86
MACOMB*        PTSUNNY   80  73  79 NW6       29.91R HX  84
JACKSONVILLE*  SUNNY     85  71  61 W7        29.87S HX  90
PITTSFIELD*    SUNNY     86  70  59 NW7       29.90S HX  90
$$

ILZ028>032-037-038-041>044-048-051>054-059>061-282200-
CENTRAL ILLINOIS

CITY           SKY/WX    TMP DP  RH WIND       PRES   REMARKS
PONTIAC        LGT RAIN  74  70  85 W9        29.90R
BLOOMINGTON    TSTM      73  67  81 VRB5      29.91R
DECATUR        CLOUDY    86  73  65 CALM      29.87S HX  93
PEORIA         MOSUNNY   87  70  56 NW7       29.87R HX  92
LACON*         CLOUDY    84  71  64 E3        29.86S HX  88
SPRINGFIELD    MOSUNNY   85  69  58 NW5       29.86F HX  89
TAYLORVILLE    MOSUNNY   76  69  78 MISG      29.86F
$$

ILZ033-039-045-046-055>057-062-063-282200-
EAST-CENTRAL ILLINOIS

CITY           SKY/WX    TMP DP  RH WIND       PRES   REMARKS
CHAMPAIGN      MOSUNNY   81  72  74 SW3       29.88S HX  85
MATTOON        MOSUNNY   83  69  62 W3        29.86F HX  86
PARIS*         MOSUNNY   84  76  76 W3        29.88R HX  93
$$

ILZ079-100>102-282200-
SOUTHWEST ILLINOIS

CITY           SKY/WX    TMP DP  RH WIND       PRES   REMARKS
CAHOKIA*       SUNNY     91  68  46 NW12      29.84F HX  95
SPARTA*        PTSUNNY   87  73  62 NW6       29.86F HX  95
$$

ILZ064>066-069>071-074>076-080>082-084>086-088>090-092>094-282200-
SOUTH-CENTRAL ILLINOIS

CITY           SKY/WX    TMP DP  RH WIND       PRES   REMARKS
CARBONDALE     MOSUNNY   88  73  61 NW3       29.86S HX  95
CAIRO*         MOSUNNY   84  78  82 SW5       29.86F HX  94
EFFINGHAM*     CLOUDY    83  75  78 S5        29.88S HX  90
MARION         PTSUNNY   88  77  70 S8        29.86F HX 100
MT. VERNON     CLOUDY    79  68  69 MISG      29.84F THUNDER HX  81
CENTRALIA*     CLOUDY    80  73  80 SE5       29.84F HX  84
SALEM*         PTSUNNY   81  70  68 N9G20     29.85F THUNDER HX  84
METROPOLIS*    MOSUNNY   87  77  70 SW6       29.87F HX  99
$$

ILZ067-068-072-073-078-083-087-091-282200-
SOUTHEAST ILLINOIS

CITY           SKY/WX    TMP DP  RH WIND       PRES   REMARKS
LAWRENCEVILLE  PTSUNNY   85  74  69 SW6       29.85S HX  92
FLORA*         CLOUDY    87  75  68 SW5       29.84F HX  97
FAIRFIELD*     CLOUDY    84  76  78 CALM      29.83F HX  93
HARRISBURG*    MOSUNNY   87  78  73 S6        29.86F HX 100
ROBINSON*      MOSUNNY   84  75  74 SW6       29.86S HX  92
CARMI*         SUNNY     86  77  75 S3        29.84F HX  97
$$

ABBREVIATIONS USED IN REMARKS
   TC - TEMPERATURE IN CELSIUS
  WCI - WIND CHILL INDEX
   HX - HEAT INDEX
  VSB - VISIBILITY
$$




USA.gov is the U.S. government's official web portal to all federal, state and local government web resources and services.